SO-115 (51080 NORAD) Tracking and Keplerian Element Data

This shows tracking and keplerian element data for the satellite.

Feedback or suggestion? Click here.




ElementValue
Catalog51080
NameSO-115
Epoch Orbit12853
Epoch Day125.01655374
Epoch Year2024
RAAN207.8147
Inclination97.4074
Eccentricity0.0007989
Argument of Perigee221.3344
Mean Anonmoly138.7319
Mean Motion15.78127604
Decay Rate0.00278376
L11 51080U 22002DA 24125.01655374 .00278376 00000-0 15867-2 0 9997
L22 51080 97.4074 207.8147 0007989 221.3344 138.7319 15.78127604128530



Live tracking and technical data element details for SO-115 (NORAD 51080). SO-115 can be tracked NOW for your location showing map with azimuth and elevation plus other details from your city location.







IsCatalogInMostPopularTable: catalog: 51080, numindb: 66
Update: records affected: 1



GetName: 51080 SO-115

Hit Count: updated at: Sat, 25 Jan 2025 00:11:26 GMT